Location: Banska Bystrica
(48.7333°N, 19.1500°E)
Time: 07:48:28
(UTC+02:00)

Daily predictions for brighter satellites

Satellite Brightness Start Highest point End
(mag) Time Altitude Azimuth Time Altitude Azimuth Time Altitude Azimuth
Okean 2 Rocket 3.1 20:21:11 10° S 20:25:38 67° E 20:30:08 10° NNE
Atlas Centaur 2 4.3 20:21:16 10° SSW 20:25:49 17° S 20:29:58 10° SE
Cosmos 1441 Rocket 3.9 20:22:16 10° NNW 20:25:58 56° W 20:29:36 10° S
S3M 4.2 20:21:03 10° N 20:27:12 58° ENE 20:33:24 10° SSE
Meteor 2-4 Rocket 4.2 20:24:31 10° N 20:29:43 42° ENE 20:35:01 10° SE
Envisat 3.1 20:25:04 10° SSE 20:30:10 90° E 20:35:17 10° NNW
Cosmos 1980 Rocket 2.2 20:24:39 10° SSW 20:30:11 64° ESE 20:35:43 10° NNE
Cosmos 1553 Rocket 4.0 20:24:59 10° N 20:31:11 66° ENE 20:37:15 10° SSE
ERS-1 Rocket 3.8 20:27:04 10° SE 20:31:32 33° ENE 20:36:00 10° N
Iridium 30 4.3 20:30:30 10° S 20:33:38 82° E 20:37:24 10° N
USA 186 2.6 20:30:24 10° S 20:33:41 56° W 20:37:02 10° NNW
Cosmos 2056 Rocket 3.8 20:31:20 10° SSW 20:36:28 76° WNW 20:41:43 10° NNE
ATLAS 2AS CENTAUR R/B 4.0 20:33:10 10° SSE 20:38:42 22° ESE 20:44:24 10° ENE
USA 229 DEB 4.5 20:32:52 10° WSW 20:39:35 58° NW 20:46:31 10° NE
USA 229 4.5 20:32:58 10° WSW 20:39:42 58° NW 20:46:37 10° NE
Helios 1A 3.2 20:36:34 10° SSE 20:40:44 59° ENE 20:44:57 10° N
Meteor 1-29 4.2 20:39:22 10° NE 20:42:08 22° E 20:44:51 10° SSE
NOSS 3-1 (A) 3.4 20:38:45 10° SSW 20:44:34 74° SE 20:51:12 10° NE
Cosmos 1697 Rocket 3.3 20:41:11 10° SW 20:46:46 64° WNW 20:52:24 10° NNE
Cosmos 1607 4.4 20:42:19 10° NW 20:48:40 55° NE 20:54:36 12° ESE
Cosmos 44 3.7 20:47:07 10° NW 20:51:26 54° WSW 20:55:51 10° SSE
ERBS 2.9 20:51:44 10° SSW 20:54:58 37° SE 20:58:13 10° ENE
Meteor 1-11 Rocket 3.9 20:51:19 10° S 20:57:02 58° E 21:02:40 10° NNE
Cosmos 1850 Rocket 4.1 20:54:29 10° NNW 20:59:52 73° ENE 21:04:52 12° SSE
Cosmos 1452 Rocket 3.5 20:55:13 10° SSW 21:00:29 77° ESE 21:05:48 10° NNE
Cosmos 1420 Rocket 4.0 21:00:56 10° S 21:06:00 61° ESE 21:11:08 10° NNE
Resurs 01 Rocket 3.8 21:03:23 10° SSW 21:07:08 26° W 21:10:54 10° NW
Cosmos 2360 4.3 21:01:38 10° SSW 21:07:20 83° WNW 21:13:05 10° NNE
YAOGAN 6 2.9 21:03:55 10° S 21:07:27 65° W 21:10:59 10° NNW
Cosmos 1633 3.9 21:05:39 10° SSW 21:09:06 42° WNW 21:12:36 10° N
Okean 1-7 Rocket 4.3 21:05:53 10° N 21:10:04 38° ENE 21:13:00 18° SE
Cosmos 1655 Rocket 4.3 21:04:05 10° SSW 21:10:21 72° WNW 21:16:42 10° N
SPOT 1/Viking Rocket 4.3 21:10:35 16° ESE 21:14:11 37° ENE 21:18:57 10° N
NOSS 3-1 (C) 4.1 21:09:18 10° WSW 21:15:11 62° NW 21:21:55 10° NE
Okean 1 Rocket 3.4 21:12:53 11° SSE 21:16:45 45° E 21:20:56 10° NNE
NOSS 2-3 (C) 4.4 21:18:01 10° S 21:22:24 38° ESE 21:27:29 10° NE
USA 215 4.3 21:17:19 10° ENE 21:23:25 43° N 21:29:32 10° WNW
Meteor 1-23 Rocket 4.2 21:18:54 10° N 21:24:30 81° ENE 21:29:21 14° SSE
MetOp-A 4.1 21:21:24 14° SSE 21:26:06 82° ENE 21:31:29 10° NNW
Cosmos 1300 Rocket 3.4 21:21:49 10° S 21:26:07 81° E 21:30:27 10° NNE
Cosmos 2151 Rocket 4.2 21:22:36 10° SSW 21:26:56 58° WNW 21:31:18 10° N
Terra 3.2 21:26:47 17° E 21:29:03 25° ENE 21:32:54 10° N
Cosmos 2278 Rocket 4.2 21:26:48 10° N 21:30:29 17° NE 21:34:11 10° ENE
USA 238 DEB 4.1 21:23:58 10° NW 21:30:57 58° NE 21:36:06 19° ESE
USA 238 4.1 21:24:04 10° NW 21:31:03 58° NE 21:36:12 19° ESE
Cosmos 1975 4.3 21:31:02 19° E 21:31:19 19° E 21:34:10 10° NE
Cosmos 1025 Rocket 2.9 21:31:28 10° N 21:35:45 70° E 21:38:13 24° SSE
Cosmos 2263 Rocket 2.3 21:31:23 10° NNW 21:37:06 75° WSW 21:41:13 19° SSE
Cosmos 2322 Rocket 2.1 21:31:41 10° SSW 21:37:22 76° ESE 21:43:05 10° NNE
SeaSat 1 3.6 21:33:13 10° NNE 21:37:56 45° NW 21:42:37 10° SW
Helios 1B rocket 2.9 21:36:34 10° N 21:40:39 63° WNW 21:44:41 10° SSW
ARGOS 3.1 21:37:05 18° SSE 21:41:07 89° E 21:46:31 10° NNW
USA 245 3.9 21:37:31 19° SSE 21:41:21 81° ENE 21:45:51 10° NNW
BREEZE M DEB (TANK) 4.2 21:38:29 10° SSW 21:42:17 20° S 21:42:17 20° S
CZ-4B DEB 4.3 21:40:55 13° SSW 21:43:04 29° W 21:45:39 10° NW
Abrixas rocket 2.1 21:41:38 10° W 21:44:55 84° S 21:46:11 35° E
Cosmos 220 Rocket 4.0 21:41:25 10° NNW 21:45:43 83° WSW 21:47:57 28° SSE
Cosmos 1844 Rocket 3.6 21:40:42 10° NNW 21:45:59 38° NE 21:49:01 22° ESE
SL-16 R/B 2.1 21:40:45 10° SSW 21:46:25 87° ESE 21:52:08 10° NNE
Cosmos 1238 Rocket 4.3 21:40:03 10° N 21:46:41 57° ENE 21:50:35 25° SE
H-2A R/B 3.7 21:47:48 18° E 21:49:06 20° ENE 21:52:19 10° NNE
SL-08 RB Rocket 3.6 21:46:53 25° SSE 21:49:33 87° ENE 21:54:08 10° NNW
Tiangong 1 2.8 21:49:23 10° WSW 21:50:36 17° SW 21:50:36 17° SW
H-2A R/B 1.9 21:49:26 26° SSE 21:52:20 77° ENE 21:57:21 10° NNW
Cosmos 2322 4.2 21:51:08 26° SSE 21:53:22 37° ESE 21:58:32 10° NE
Cosmos 1536 3.6 21:49:46 10° SSW 21:53:45 52° WNW 21:57:46 10° N
SL-8 R/B 3.6 21:49:38 10° W 21:54:27 82° S 21:56:53 29° ESE
Cosmos 839 Rocket 4.4 21:49:14 10° SW 21:55:20 65° NW 22:01:48 10° NE
Lacrosse 5 rocket 3.6 21:53:51 10° W 21:55:40 13° SW 21:57:25 10° SSW
ATLAS 3B R/B 2.6 21:50:10 10° NW 21:57:02 81° NE 22:00:43 28° SE
COSMOS 2428 3.8 21:59:47 24° ESE 21:59:50 24° ESE 22:04:19 10° NE
Cosmos 1244 Rocket 4.5 21:56:07 21° S 22:00:15 64° E 22:06:20 10° NNE
Cosmos 2219 Rocket 4.0 22:02:25 14° E 22:02:25 14° E 22:04:30 10° ENE
NOSS 2-3 (D) 3.8 21:57:09 10° SSW 22:01:53 70° SE 22:07:32 10° NE
SPOT 5 3.0 22:00:07 25° S 22:03:01 73° WSW 22:07:45 10° NNW
Cosmos 1892 Rocket 3.6 22:02:23 10° N 22:06:51 67° E 22:08:12 42° SE
Meteor 1-5 Rocket 4.4 22:03:22 10° SSW 22:08:40 65° WNW 22:13:57 10° N
ERS-1 Rocket 4.2 22:06:05 13° SSW 22:10:14 38° W 22:14:56 10° NNW
Cosmos 1844 4.4 22:05:03 10° NNW 22:10:27 43° NE 22:12:52 29° ESE
EXPRESS MD2 3.6 22:07:28 10° WSW 22:10:52 78° SSE 22:17:50 10° ENE
Lacrosse 5 2.2 22:11:23 39° SSE 22:11:53 40° SE 22:16:37 10° ENE
GP-B 4.0 22:08:26 10° NNE 22:12:24 31° E 22:12:40 30° E
Cosmos 2360 Rocket 2.1 22:09:04 20° S 22:12:55 62° ESE 22:18:28 10° NNE
Atlas Centaur 2 4.3 22:10:21 10° SW 22:13:52 14° SSW 22:13:54 14° SSW
Cosmos 2333 Rocket 4.0 22:15:23 14° E 22:15:23 14° E 22:17:18 10° ENE
Cosmos 1980 Rocket 4.3 22:09:52 10° WSW 22:14:37 28° NW 22:19:25 10° NNE
Cosmos 2315 Rocket 4.5 22:10:14 10° NNW 22:16:20 58° W 22:21:01 18° SSW
Cosmos 1515 4.1 22:13:05 10° NNW 22:16:50 56° W 22:18:02 37° SSW
Molniya-1 4.2 22:19:10 10° NW 22:21:28 50° NNE 22:21:28 50° NNE
Cosmos 1486 Rocket 3.9 22:18:56 10° NNW 22:24:14 81° ENE 22:25:53 45° SSE
BREEZE-M DEB (TANK) 4.2 22:22:58 10° WSW 22:23:00 10° WSW 22:23:00 10° WSW
Okean 2 4.5 22:21:54 10° NNW 22:25:45 39° W 22:27:31 25° SW
DMSP B5D2-2 4.0 22:21:14 10° NNE 22:26:29 69° ESE 22:28:22 40° S
Cosmos 1544 Rocket 3.6 22:26:34 55° SE 22:27:14 64° E 22:31:41 10° NNE
ATLAS 2AS CENTAUR R/B 3.0 22:20:47 10° SSW 22:28:35 80° SE 22:36:46 10° NE
Cosmos 1302 Rocket 4.1 22:29:35 46° SE 22:30:30 52° ESE 22:35:38 10° NNE
ERBS 3.7 22:28:19 10° W 22:31:38 40° NNW 22:34:56 10° NE
Cosmos 1437 Rocket 3.7 22:32:37 36° ENE 22:32:37 36° ENE 22:35:40 10° NNE
Cosmos 1500 3.6 22:36:31 46° SW 22:37:26 61° WNW 22:41:18 10° N
Cosmos 1110 Rocket 4.1 22:34:50 19° SSW 22:38:34 74° WNW 22:43:46 10° NNE
Meteor 1-12 Rocket 4.1 22:37:02 40° S 22:39:09 79° E 22:44:49 10° NNE
NOSS 2-3 (E) 4.3 22:34:20 10° SW 22:39:10 67° NW 22:45:02 10° NE
Meteor 1-21 4.3 22:33:45 10° N 22:39:18 60° ENE 22:40:42 46° SE
Cosmos 1455 Rocket 2.9 22:39:46 67° SSE 22:40:15 76° E 22:44:44 10° NNE
Cosmos 405 3.1 22:40:31 75° WNW 22:40:31 75° WNW 22:44:03 10° N
Cosmos 2237 Rocket 4.0 22:42:56 16° E 22:42:56 16° E 22:45:04 10° ENE
CZ-2C R/B 4.2 22:41:12 24° ENE 22:41:58 25° ENE 22:45:50 10° N
Cosmos 1066 Rocket 4.3 22:37:59 10° NNW 22:43:19 66° W 22:45:16 39° SSW
CENTAUR R/B 3.9 22:43:10 10° NW 22:50:18 43° NNE 22:56:10 18° E
Landsat 7 4.5 22:49:51 37° SW 22:51:14 48° W 22:55:51 10° NNW
Cosmos 1745 Rocket 3.8 22:52:00 42° S 22:54:13 86° E 23:00:24 10° N
Cosmos 1818 4.3 22:56:56 36° E 22:56:56 36° E 23:00:53 10° NE
Cosmos 1331 Rocket 4.4 22:52:26 21° SW 22:55:53 61° WNW 23:01:06 10° NNE
ALOS 2 4.3 22:57:59 22° ENE 22:58:12 22° ENE 23:01:33 10° NNE
Cosmos 1354 Rocket 3.9 22:52:51 10° NNW 22:58:14 83° ENE 22:59:07 63° SE
COSMOS 2455 4.4 22:54:34 10° NNW 22:59:43 28° NE 23:03:13 17° E
USA 81 4.1 22:58:04 10° N 23:03:18 58° E 23:03:49 56° ESE
Cosmos 1842 3.7 23:01:34 10° N 23:04:53 57° NNE 23:04:53 57° NNE
USA 215 3.7 23:01:12 19° E 23:05:50 57° NNE 23:12:13 10° NW
Terra 2.4 23:05:40 43° SW 23:06:32 48° W 23:11:10 10° NNW
Cosmos 1975 3.9 23:06:48 36° WSW 23:07:33 40° WNW 23:11:20 10° N
CARTOSAT-1 4.5 23:10:57 38° WSW 23:11:23 39° W 23:15:28 10° NNW
ATLAS CENTAUR R/B 3.6 23:10:17 10° N 23:12:34 15° NNE 23:13:41 14° NE
BREEZE-M (TANK) 3.6 23:04:02 10° WNW 23:13:24 49° SW 23:13:24 49° SW
IGS 5A 4.5 23:14:31 36° WSW 23:14:43 36° W 23:18:36 10° NNW
Cosmos 2278 Rocket 2.3 23:10:03 10° NNW 23:15:43 67° ENE 23:16:39 57° ESE
Cosmos 2237 4.3 23:13:37 34° SW 23:16:09 74° WNW 23:21:53 10° NNE
Cosmos 1602 Rocket 3.7 23:15:28 10° NNW 23:19:38 64° W 23:19:38 64° W
BREEZE-M DEB 4.5 23:16:24 10° WNW 23:19:48 26° WSW 23:19:48 26° WSW
USA 238 DEB 4.4 23:15:13 10° NW 23:21:47 42° WSW 23:23:31 37° SSW
USA 238 4.4 23:15:18 10° NW 23:21:54 43° WSW 23:23:37 37° SSW
Cosmos 2322 Rocket 4.4 23:17:26 10° W 23:22:03 25° NW 23:26:41 10° N
Cosmos 1503 Rocket 4.1 23:16:46 10° NNW 23:22:06 65° WSW 23:22:37 61° SW
NOSS 3-2 (A) 4.0 23:15:22 10° NW 23:22:45 72° SW 23:25:04 49° SSE
Cosmos 1666 3.4 23:23:53 53° NNW 23:23:53 53° NNW 23:27:07 10° N
CZ-4B R/B 3.5 23:18:55 10° NNE 23:23:14 62° ENE 23:23:14 62° ENE
Spot 4 3.9 23:24:02 64° WSW 23:24:13 65° WSW 23:28:59 10° NNW
H-2A R/B 2.6 23:24:56 51° W 23:24:56 51° W 23:29:02 10° NNW
Timation 1 Rocket 4.2 23:22:50 10° NNW 23:28:53 88° ENE 23:29:44 67° SE
Cosmos 1743 3.9 23:29:13 39° WNW 23:29:13 39° WNW 23:32:36 10° N
Cosmos 1844 Rocket 3.3 23:24:37 10° NW 23:29:59 44° WSW 23:30:40 42° SW
Cosmos 1241 Rocket 4.4 23:29:01 47° SSW 23:31:07 85° SE 23:37:38 10° NE
H-2A R/B 4.2 23:30:04 12° WSW 23:32:19 16° W 23:35:23 10° NW
deb Chang Zheng 4 3.8 23:30:04 10° NNE 23:34:04 71° NNW 23:34:04 71° NNW
Meteor 1-15 Rocket 4.4 23:34:38 58° ESE 23:34:52 59° E 23:40:40 10° NNE
Meteor 2-9 Rocket 4.1 23:36:49 71° S 23:37:30 90° WNW 23:43:14 10° NNE
NOSS 0 Rocket 4.0 23:38:10 56° ESE 23:38:10 56° ESE 23:44:13 10° NE
COSMOS 2428 3.0 23:41:44 41° WSW 23:43:38 64° WNW 23:49:21 10° NNE
Cosmos 2219 Rocket 2.0 23:44:06 78° SSW 23:44:29 87° ESE 23:50:11 10° NNE
CZ-4 R/B 4.1 23:39:55 10° N 23:44:36 61° WNW 23:44:53 60° W
SL-16 R/B 3.7 23:48:03 23° E 23:48:03 23° E 23:51:14 10° NE
ATLAS 3B R/B 3.9 23:41:47 10° WNW 23:46:58 24° WSW 23:47:57 23° SW
Cosmos 2181 Rocket 4.0 23:42:57 10° NNW 23:49:25 76° W 23:50:29 62° SSW
Cosmos 1606 Rocket 4.4 23:51:18 44° NE 23:51:18 44° NE 23:54:37 10° NNE
Meteor 1-4 Rocket 4.1 23:52:17 36° N 23:52:17 36° N 23:54:38 10° N
CZ-2C R/B 2.7 23:47:02 10° NNE 23:52:06 62° E 23:52:06 62° E
Lacrosse 5 2.4 23:50:01 11° WSW 23:54:46 58° NNW 23:59:47 10° NE
